Location: Bonn
(50.7330°N, 7.1000°E)
Time: 18:31:17
(UTC+02:00)

Cosmos 1933 Rocket - Visible Passes

Search period start: 20 August 2014 00:00
Search period end: 30 August 2014 00:00
Orbit: 609 x 631 km, 82.5° (Epoch: 20 August)

Date Brightness Start Highest point End Pass type
(mag) Time Alt. Az. Time Alt. Az. Time Alt. Az.
20 Aug 4.1 01:33:04 10° NNW 01:36:46 55° NW 01:36:46 55° NW visible
21 Aug 5.0 00:13:18 10° N 00:17:06 28° ENE 00:17:06 28° ENE visible
21 Aug 4.8 01:51:01 10° NNW 01:54:16 34° WNW 01:54:16 34° WNW visible
22 Aug 4.4 00:30:46 10° N 00:34:37 44° NE 00:34:37 44° NE visible
22 Aug 5.5 02:09:14 10° NW 02:11:47 21° WNW 02:11:47 21° WNW visible
22 Aug 5.9 23:12:34 10° NE 23:14:11 12° ENE 23:14:59 11° ENE visible
23 Aug 4.0 00:48:24 10° N 00:52:09 60° N 00:52:09 60° N visible
23 Aug 6.0 02:27:59 10° NW 02:29:19 13° WNW 02:29:19 13° WNW visible
23 Aug 5.4 23:29:08 10° NNE 23:32:18 19° ENE 23:32:31 19° ENE visible
24 Aug 4.4 01:06:13 10° NNW 01:09:41 48° NW 01:09:41 48° NW visible
24 Aug 4.9 23:46:22 10° N 23:50:03 29° ENE 23:50:03 29° ENE visible
25 Aug 5.1 01:24:12 10° NNW 01:27:13 31° WNW 01:27:13 31° WNW visible
26 Aug 4.3 00:03:52 10° N 00:07:36 45° NE 00:07:36 45° NE visible
26 Aug 5.7 01:42:27 10° NW 01:44:47 19° WNW 01:44:47 19° WNW visible
26 Aug 5.8 22:45:26 10° NNE 22:47:22 13° ENE 22:48:00 12° ENE visible
27 Aug 4.1 00:21:32 10° N 00:25:10 58° N 00:25:10 58° N visible
27 Aug 6.2 02:01:22 10° NW 02:02:20 12° WNW 02:02:20 12° WNW visible
27 Aug 5.3 23:02:10 10° NNE 23:05:29 20° ENE 23:05:34 20° ENE visible
28 Aug 4.5 00:39:21 10° NNW 00:42:44 44° NW 00:42:44 44° NW visible
28 Aug 4.7 23:19:27 10° N 23:23:09 31° ENE 23:23:09 31° ENE visible
29 Aug 5.2 00:57:22 10° NNW 01:00:19 29° WNW 01:00:19 29° WNW visible
29 Aug 4.2 23:36:58 10° N 23:40:44 49° NE 23:40:44 49° NE visible
